Hourly Data Report for October 15, 2016

All times are specified in Local Standard Time (LST). Add 1 hour to adjust for Daylight Saving Time where and when it is observed.

CHARLOTTETOWN A
PRINCE EDWARD ISLAND

46°17'21.000" N
63°07'09.000" W
48.50 m
8300301
71706
YYG

Download Data

Hourly Data (October 2016)
Hourly Data Report for October 15, 2016
Temp Definition
°C
Dew Point Temp Definition
°C
Rel Hum Definition
%
Wind Dir Definition
10's deg

Wind Spd Definition
km/h
Visibility Definition
km
Stn Press Definition
kPa
Hmdx Definition


Wind Chill Definition


Weather Definition


TIME
00:00 Legend Double Dagger 6.6 -0.6 60 34 13 24.1 101.91     LegendNANA
01:00 Legend Double Dagger 6.8 0.3 63 36 14 24.1 101.92     LegendNANA
02:00 Legend Double Dagger 6.7 -1.2 57 36 13 24.1 101.93     Mostly Cloudy
03:00 Legend Double Dagger 6.9 0.8 65 36 12 24.1 101.99     LegendNANA
04:00 Legend Double Dagger 6.7 1.6 70 36 12 24.1 102.04     LegendNANA
05:00 Legend Double Dagger 6.7 0.2 63 36 13 24.1 102.09     Mostly Cloudy
06:00 Legend Double Dagger 6.5 -0.5 61 35 11 24.1 102.12     LegendNANA
07:00 Legend Double Dagger 6.9 0.8 65 1 13 24.1 102.15     Rain Showers
08:00 Legend Double Dagger 7.8 1.2 63 3 21 24.1 102.21     Rain Showers
09:00 Legend Double Dagger 8.5 0.7 58 1 17 24.1 102.28     LegendNANA
10:00 Legend Double Dagger 9.2 0.4 54 36 17 24.1 102.34     LegendNANA
11:00 Legend Double Dagger 9.3 0.5 54 1 21 24.1 102.38     Mostly Cloudy
12:00 Legend Double Dagger 9.2 -0.1 52 1 24 24.1 102.38     LegendNANA
13:00 Legend Double Dagger 9.4 0.3 53 3 25 24.1 102.31     LegendNANA
14:00 Legend Double Dagger 9.0 1.0 57 4 19 24.1 102.27     Mostly Cloudy
15:00 Legend Double Dagger 8.7 0.2 55 5 19 24.1 102.21     LegendNANA
16:00 Legend Double Dagger 8.1 0.4 58 3 17 24.1 102.21     LegendNANA
17:00 Legend Double Dagger 5.9 -0.4 64 2 7 24.1 102.19     Mostly Cloudy
18:00 Legend Double Dagger 3.1 -0.5 77 36 4 24.1 102.20     LegendNANA
19:00 Legend Double Dagger 1.9 -0.2 86 33 4 24.1 102.22     LegendNANA
20:00 Legend Double Dagger 1.8 0.0 88 36 1 24.1 102.20     Mostly Cloudy
21:00 Legend Double Dagger 0.8 -0.7 90 0 1 24.1 102.18     LegendNANA
22:00 Legend Double Dagger -0.3 -1.6 91 36 2 24.1 102.14   -1 LegendNANA
23:00 Legend Double Dagger 0.0 -1.1 92 19 5 24.1 102.10   -2 Mostly Cloudy

Notes on Data Quality.

Legend

  • E = Estimated
  • M = Missing
  • NA = Not Available
  • ‡ = Partner data that is not subject to review by the National Climate Archives
Date modified: